ACA826 CYYZ-EBBR

Flight info

Callsign ACA826
Flight time N/A
Altitude 35000
Route VERDO7 LORKA Q907 MIILS N371B JOOPY/M084F370 DCT 49N050W 51N040W 53N030W 54N020W DCT DOGAL DCT BEXET/N0483F390 DCT MORAG DCT NUCHU L607 BIG/N0477F290 Q70 VABIK/N0431F230 Q70 KOK
Aircraft B77W/H-SDE1E2E3FGHIJ2J3J4J5M1RWXY/LB1D1

Departure

Time N/A
Airport Toronto Pearson International Airport (CYYZ)

Arrival

Time 2026-05-03 21:14
Airport Brussels Airport (EBBR)
Time Latitude Longitude Altitude Speed Heading
2026-05-03 20:15 52.71199 -5.36553 36951 ft 481 kts 118°
2026-05-03 20:15 52.68078 -5.26787 36940 ft 482 kts 118°
2026-05-03 20:16 52.64974 -5.17001 36939 ft 482 kts 118°
2026-05-03 20:16 52.61896 -5.07256 36933 ft 482 kts 118°
2026-05-03 20:17 52.58798 -4.97465 36930 ft 482 kts 118°
2026-05-03 20:17 52.55692 -4.87686 36929 ft 482 kts 118°
2026-05-03 20:18 52.52576 -4.77919 36926 ft 482 kts 118°
2026-05-03 20:18 52.49449 -4.68162 36923 ft 483 kts 118°
2026-05-03 20:19 52.46312 -4.58413 36924 ft 483 kts 118°
2026-05-03 20:19 52.43187 -4.48736 36922 ft 483 kts 119°
2026-05-03 20:20 52.40024 -4.38982 36920 ft 483 kts 119°
2026-05-03 20:20 52.36856 -4.29253 36921 ft 484 kts 119°
2026-05-03 20:21 52.33684 -4.19547 36920 ft 484 kts 119°
2026-05-03 20:21 52.30502 -4.09850 36921 ft 484 kts 119°
2026-05-03 20:22 52.27311 -4.00163 36924 ft 484 kts 120°
2026-05-03 20:22 52.24111 -3.90487 36919 ft 484 kts 120°
2026-05-03 20:23 52.20922 -3.80880 36916 ft 484 kts 120°
2026-05-03 20:23 52.17709 -3.71240 36921 ft 484 kts 120°
2026-05-03 20:24 52.14485 -3.61605 36916 ft 483 kts 120°
2026-05-03 20:24 52.11258 -3.52000 36913 ft 483 kts 120°
2026-05-03 20:25 52.08027 -3.42417 36932 ft 482 kts 120°
2026-05-03 20:25 52.04795 -3.32867 36928 ft 482 kts 120°
2026-05-03 20:26 52.01551 -3.23322 36924 ft 483 kts 121°
2026-05-03 20:26 51.98316 -3.13839 36932 ft 483 kts 121°
2026-05-03 20:27 51.95046 -3.04288 36922 ft 484 kts 121°
2026-05-03 20:27 51.91764 -2.94738 36931 ft 485 kts 121°
2026-05-03 20:28 51.88474 -2.85202 36927 ft 485 kts 121°
2026-05-03 20:28 51.85176 -2.75680 36935 ft 485 kts 121°
2026-05-03 20:29 51.81885 -2.66214 36929 ft 486 kts 122°
2026-05-03 20:29 51.78566 -2.56704 36928 ft 486 kts 122°
2026-05-03 20:30 51.75239 -2.47203 36919 ft 485 kts 122°
2026-05-03 20:30 51.71913 -2.37744 36913 ft 484 kts 122°
2026-05-03 20:31 51.68591 -2.28328 36905 ft 482 kts 122°
2026-05-03 20:31 51.65270 -2.18952 36910 ft 481 kts 122°
2026-05-03 20:32 51.61944 -2.09599 36913 ft 481 kts 122°
2026-05-03 20:32 51.58638 -2.00334 36908 ft 480 kts 122°
2026-05-03 20:33 51.55307 -1.91031 36914 ft 480 kts 123°
2026-05-03 20:33 51.51967 -1.81735 36911 ft 480 kts 123°
2026-05-03 20:34 51.48666 -1.72467 36912 ft 482 kts 120°
2026-05-03 20:34 51.46167 -1.62465 36910 ft 486 kts 109°
2026-05-03 20:35 51.44690 -1.51825 36904 ft 489 kts 104°
2026-05-03 20:35 51.43285 -1.41149 36901 ft 490 kts 105°
2026-05-03 20:36 51.41788 -1.30483 36895 ft 491 kts 105°
2026-05-03 20:36 51.40286 -1.19787 36894 ft 491 kts 105°
2026-05-03 20:37 51.39210 -1.09042 36908 ft 488 kts 97°
2026-05-03 20:37 51.38685 -0.98050 36913 ft 500 kts 97°
2026-05-03 20:38 51.38159 -0.86945 36906 ft 500 kts 97°
2026-05-03 20:38 51.37595 -0.75926 36908 ft 499 kts 98°
2026-05-03 20:39 51.37002 -0.64888 36902 ft 497 kts 98°
2026-05-03 20:39 51.36398 -0.53871 36900 ft 495 kts 98°
2026-05-03 20:40 51.35789 -0.42903 36902 ft 494 kts 98°
2026-05-03 20:40 51.35174 -0.32011 36904 ft 494 kts 98°
2026-05-03 20:41 51.34547 -0.21083 36939 ft 494 kts 98°
2026-05-03 20:41 51.33909 -0.10135 36944 ft 494 kts 98°
2026-05-03 20:42 51.33261 0.00816 36941 ft 495 kts 99°
2026-05-03 20:42 51.32672 0.11794 36938 ft 496 kts 97°
2026-05-03 20:43 51.32182 0.22819 36938 ft 496 kts 97°
2026-05-03 20:43 51.31675 0.33843 36994 ft 497 kts 98°
2026-05-03 20:44 51.31140 0.44846 37000 ft 497 kts 98°
2026-05-03 20:44 51.30597 0.55791 36998 ft 496 kts 98°
2026-05-03 20:45 51.30099 0.66811 36970 ft 497 kts 97°
2026-05-03 20:45 51.29724 0.77841 36953 ft 496 kts 96°
2026-05-03 20:46 51.29334 0.88846 36911 ft 496 kts 97°
2026-05-03 20:46 51.28914 0.99844 36918 ft 496 kts 97°
2026-05-03 20:47 51.28483 1.10781 36910 ft 496 kts 97°
2026-05-03 20:47 51.28035 1.21780 36915 ft 496 kts 97°
2026-05-03 20:48 51.27577 1.32791 36911 ft 496 kts 97°
2026-05-03 20:48 51.27112 1.43795 36917 ft 496 kts 97°
2026-05-03 20:49 51.26639 1.54733 36918 ft 496 kts 97°
2026-05-03 20:49 51.26158 1.65746 36917 ft 496 kts 98°
2026-05-03 20:50 51.25669 1.76752 36920 ft 496 kts 98°
2026-05-03 20:50 51.25169 1.87753 36924 ft 496 kts 98°
2026-05-03 20:51 51.24663 1.98677 36920 ft 496 kts 98°
2026-05-03 20:51 51.24404 2.04216 36294 ft 504 kts 98°
2026-05-03 20:51 51.24149 2.09797 35556 ft 504 kts 98°
2026-05-03 20:51 51.23896 2.15384 34712 ft 504 kts 98°
2026-05-03 20:52 51.23640 2.20972 33868 ft 505 kts 98°
2026-05-03 20:52 51.23380 2.26579 32857 ft 506 kts 99°
2026-05-03 20:52 51.23102 2.32186 31877 ft 503 kts 101°
2026-05-03 20:52 51.22393 2.37563 31282 ft 487 kts 114°
2026-05-03 20:53 51.21147 2.42418 30701 ft 473 kts 123°
2026-05-03 20:53 51.19497 2.46877 30087 ft 460 kts 131°
2026-05-03 20:53 51.17471 2.50718 29419 ft 448 kts 138°
2026-05-03 20:53 51.15393 2.54378 28804 ft 442 kts 137°
2026-05-03 20:54 51.13371 2.58043 28210 ft 436 kts 137°
2026-05-03 20:54 51.09703 2.65575 27080 ft 433 kts 122°
2026-05-03 20:54 51.08746 2.70138 26564 ft 436 kts 107°
2026-05-03 20:55 51.08206 2.74868 26032 ft 434 kts 105°
2026-05-03 20:55 51.07679 2.79612 25491 ft 434 kts 105°
2026-05-03 20:55 51.07144 2.84358 24955 ft 439 kts 105°
2026-05-03 20:55 51.06590 2.89125 24413 ft 447 kts 105°
2026-05-03 20:56 51.06013 2.93988 23845 ft 447 kts 105°
2026-05-03 20:56 51.05431 2.98831 23222 ft 444 kts 105°
2026-05-03 20:56 51.04848 3.03626 22596 ft 440 kts 105°
2026-05-03 20:56 51.04266 3.08379 22025 ft 436 kts 105°
2026-05-03 20:57 51.03686 3.13088 21471 ft 431 kts 105°
2026-05-03 20:57 51.03109 3.17747 20917 ft 427 kts 105°
2026-05-03 20:57 51.02536 3.22353 20371 ft 423 kts 104°
2026-05-03 20:57 51.01967 3.26919 19837 ft 419 kts 104°
2026-05-03 20:58 51.01592 3.29912 19473 ft 417 kts 104°
2026-05-03 20:58 51.01026 3.34422 18948 ft 414 kts 104°
2026-05-03 20:58 51.00463 3.38895 18423 ft 411 kts 104°
2026-05-03 20:58 50.99905 3.43323 17839 ft 409 kts 104°
2026-05-03 20:59 50.99345 3.47740 17268 ft 405 kts 104°
2026-05-03 20:59 50.98791 3.52107 16717 ft 402 kts 104°
2026-05-03 20:59 50.98240 3.56434 16187 ft 398 kts 104°
2026-05-03 20:59 50.97693 3.60723 15649 ft 395 kts 104°
2026-05-03 21:00 50.97147 3.64979 15142 ft 392 kts 104°
2026-05-03 21:00 50.96787 3.67785 14804 ft 390 kts 104°
2026-05-03 21:00 50.96063 3.73396 14111 ft 387 kts 104°
2026-05-03 21:00 50.95524 3.77567 13581 ft 385 kts 104°
2026-05-03 21:01 50.94991 3.81676 13031 ft 382 kts 104°
2026-05-03 21:01 50.94457 3.85792 12485 ft 379 kts 104°
2026-05-03 21:01 50.93925 3.89875 11972 ft 376 kts 104°
2026-05-03 21:01 50.93397 3.93916 11466 ft 373 kts 104°
2026-05-03 21:02 50.92944 3.97916 10960 ft 366 kts 96°
2026-05-03 21:02 50.93226 4.01888 10667 ft 359 kts 73°
2026-05-03 21:02 50.94030 4.05443 10576 ft 344 kts 71°
2026-05-03 21:02 50.94856 4.08935 10438 ft 333 kts 70°
2026-05-03 21:03 50.95655 4.12327 10306 ft 323 kts 71°
2026-05-03 21:03 50.96425 4.15621 10169 ft 314 kts 71°
2026-05-03 21:03 50.97167 4.18829 10037 ft 305 kts 71°
2026-05-03 21:03 50.97886 4.21956 9820 ft 300 kts 71°
2026-05-03 21:04 50.98596 4.25064 9485 ft 298 kts 71°
2026-05-03 21:04 50.99291 4.28112 9173 ft 297 kts 71°
2026-05-03 21:04 50.99981 4.31150 8819 ft 288 kts 71°
2026-05-03 21:04 51.00653 4.34110 8499 ft 282 kts 72°
2026-05-03 21:05 51.01317 4.37047 8167 ft 283 kts 72°
2026-05-03 21:05 51.01982 4.39990 7817 ft 283 kts 72°
2026-05-03 21:05 51.02647 4.42938 7501 ft 283 kts 72°
2026-05-03 21:05 51.03309 4.45872 7221 ft 281 kts 72°
2026-05-03 21:06 51.03966 4.48790 6955 ft 279 kts 72°
2026-05-03 21:06 51.04620 4.51700 6649 ft 279 kts 72°
2026-05-03 21:06 51.05269 4.54591 6350 ft 277 kts 72°
2026-05-03 21:06 51.05914 4.57468 6054 ft 276 kts 72°
2026-05-03 21:07 51.06557 4.60342 5753 ft 275 kts 72°
2026-05-03 21:07 51.07196 4.63200 5464 ft 273 kts 72°
2026-05-03 21:07 51.07821 4.66044 5183 ft 269 kts 76°
2026-05-03 21:07 51.07930 4.68887 4914 ft 259 kts 106°
2026-05-03 21:08 51.07178 4.71377 4717 ft 245 kts 133°
2026-05-03 21:08 51.05959 4.73149 4423 ft 232 kts 152°
2026-05-03 21:08 51.04517 4.74199 4023 ft 228 kts 163°
2026-05-03 21:08 51.03019 4.75042 3716 ft 228 kts 163°
2026-05-03 21:09 51.01531 4.75876 3477 ft 226 kts 163°
2026-05-03 21:09 51.00059 4.76712 3222 ft 224 kts 163°
2026-05-03 21:09 50.98598 4.77544 2947 ft 221 kts 166°
2026-05-03 21:09 50.97108 4.77703 2542 ft 216 kts 198°
2026-05-03 21:10 50.95887 4.76434 2305 ft 208 kts 234°
2026-05-03 21:10 50.95221 4.74509 2210 ft 194 kts 241°
2026-05-03 21:10 50.94634 4.72648 2110 ft 183 kts 244°
2026-05-03 21:10 50.94169 4.70854 2103 ft 167 kts 246°
2026-05-03 21:11 50.93784 4.69210 2030 ft 152 kts 247°
2026-05-03 21:11 50.93431 4.67682 2005 ft 149 kts 247°
2026-05-03 21:11 50.93073 4.66131 2004 ft 151 kts 247°
2026-05-03 21:11 50.92707 4.64541 1841 ft 154 kts 247°
2026-05-03 21:12 50.92347 4.62972 1636 ft 149 kts 246°
2026-05-03 21:12 50.91996 4.61452 1456 ft 145 kts 247°
2026-05-03 21:12 50.91662 4.59994 1202 ft 137 kts 246°
2026-05-03 21:12 50.91333 4.58586 1034 ft 137 kts 246°
2026-05-03 21:13 50.91000 4.57148 831 ft 140 kts 248°
2026-05-03 21:13 50.90667 4.55685 628 ft 142 kts 248°
2026-05-03 21:13 50.90333 4.54223 412 ft 140 kts 248°
2026-05-03 21:13 50.89998 4.52782 257 ft 139 kts 248°
2026-05-03 21:14 50.89675 4.51362 192 ft 129 kts 246°
2026-05-03 21:14 50.89401 4.50198 181 ft 92 kts 250°
2026-05-03 21:14 50.89229 4.49455 181 ft 50 kts 250°
2026-05-03 21:14 50.89148 4.49099 181 ft 13 kts 259°
2026-05-03 21:15 50.89191 4.49042 180 ft 8 kts
2026-05-03 21:15 50.89297 4.49073 173 ft 26 kts 14°
2026-05-03 21:15 50.89504 4.49165 165 ft 29 kts 15°
2026-05-03 21:15 50.89605 4.49164 159 ft 13 kts 324°
2026-05-03 21:16 50.89684 4.49161 155 ft 14 kts 15°
2026-05-03 21:16 50.89795 4.49206 149 ft 19 kts 14°
2026-05-03 21:16 50.89937 4.49262 140 ft 24 kts 14°
2026-05-03 21:16 50.90107 4.49330 129 ft 26 kts 15°
2026-05-03 21:17 50.90267 4.49399 125 ft 19 kts 13°
2026-05-03 21:17 50.90320 4.49376 125 ft 9 kts 315°
2026-05-03 21:17 50.90306 4.49249 127 ft 10 kts 244°
2026-05-03 21:17 50.90276 4.49153 128 ft 10 kts 246°
2026-05-03 21:18 50.90249 4.49053 125 ft 10 kts 247°
2026-05-03 21:18 50.90219 4.48948 126 ft 11 kts 245°
2026-05-03 21:18 50.90187 4.48841 127 ft 11 kts 244°
2026-05-03 21:18 50.90139 4.48801 130 ft 7 kts 158°
2026-05-03 21:19 50.90119 4.48816 129 ft 0 kts 155°
2026-05-03 21:19 50.90111 4.48822 129 ft 1 kts 155°
2026-05-03 21:19 50.90110 4.48822 129 ft 0 kts 155°